Lid_Strength_Index
4 3 3 3 2 2 2 1 1 1 1 2 2 2 2 2 2 6 11 8 5 -1 2 7 7 8 9 10 10 11 15 17 15 15 14 13 13 13 12 12 12 11 12 11 7
5 4 4 3 3 3 2 2 1 1 1 1 2 2 1 1 6 9 5 4 1 -1 7 8 9 9 11 11 11 13 16 15 13 14 14 13 13 12 13 13 12 12 10 9 8
4 4 4 4 3 3 3 3 2 2 1 1 2 2 2 4 11 12 3 2 0 1 7 8 8 9 12 12 12 13 15 14 13 13 12 13 14 12 13 14 12 12 11 9 9
3 4 4 4 4 4 4 3 3 3 2 2 1 2 2 7 17 10 0 1 -0 6 8 9 10 11 13 13 11 14 12 13 12 11 13 14 13 13 12 11 12 11 10 9 9
2 2 3 4 4 4 4 4 3 3 3 3 2 2 5 11 11 8 1 1 6 8 9 10 11 12 13 13 12 14 13 12 12 12 13 13 13 13 13 11 11 12 10 9 8
1 2 2 3 3 4 4 4 4 3 4 3 3 3 6 12 6 6 5 6 8 9 10 10 11 11 13 13 13 12 12 13 12 12 12 13 14 13 13 12 12 12 11 10 9
1 1 1 2 3 4 4 4 4 4 4 4 4 4 7 9 6 6 7 8 8 9 10 10 10 11 12 14 13 13 15 14 13 12 13 12 14 14 12 12 12 12 12 11 9
1 1 1 1 2 3 3 4 4 4 3 4 4 6 10 5 4 6 7 8 8 8 9 9 10 11 13 13 13 15 16 17 15 13 13 13 16 13 13 13 12 12 12 12 11
-0 0 0 1 2 2 2 3 3 4 3 4 7 8 11 5 8 5 7 8 9 9 8 8 10 12 13 15 18 18 20 19 16 13 14 15 17 13 13 13 12 12 12 12 12
-1 -1 0 0 1 1 2 2 2 3 4 4 6 10 9 10 8 7 8 8 10 10 11 11 13 15 16 17 20 19 19 19 18 15 15 16 17 13 13 13 12 12 12 12 12
-1 -1 -1 0 0 0 2 4 8 8 6 10 11 11 10 8 8 9 8 9 10 12 15 13 16 17 16 15 15 16 18 18 17 14 15 16 16 14 13 13 13 11 12 11 11
-1 -1 -1 -1 -0 -1 2 7 7 6 9 7 7 8 8 8 11 9 7 11 13 16 15 16 18 16 14 14 15 16 17 18 16 15 15 17 16 15 13 13 12 12 12 11 12
-2 -2 -1 -1 -1 -0 3 5 2 3 9 9 7 8 8 7 10 11 8 9 13 15 15 16 17 14 14 16 16 17 17 17 17 16 16 17 18 16 14 14 13 12 11 11 11
-2 -1 -1 -1 1 2 4 3 2 3 12 12 9 8 6 7 11 7 7 8 11 14 14 15 14 14 15 15 14 17 15 14 15 16 20 17 21 18 16 14 14 12 12 11 12
-1 -1 -1 -1 3 5 4 3 2 5 20 12 9 4 6 8 10 10 7 8 11 12 12 16 16 16 16 16 13 16 14 14 15 17 18 19 20 20 18 16 14 13 12 13 13
-1 -1 -1 0 3 3 3 3 5 14 21 13 9 9 10 8 10 9 8 6 8 11 11 14 13 13 14 14 12 13 14 15 17 17 21 20 19 21 18 15 13 13 13 14 13
-1 -1 -0 1 6 2 3 6 15 18 12 13 12 10 10 11 10 10 10 11 12 15 15 13 13 13 13 14 13 14 15 19 21 23 22 20 19 18 16 15 14 13 14 14 12
-1 -1 -0 2 2 2 5 11 19 18 15 10 11 10 12 11 11 11 12 13 10 12 15 16 17 14 13 14 15 13 13 19 23 23 21 19 21 19 16 15 15 14 14 13 14
-1 1 2 3 2 4 9 16 18 16 11 11 11 13 14 11 12 12 12 12 11 10 14 15 15 13 12 12 11 14 15 14 16 22 20 20 19 16 16 16 16 15 15 14 14
2 4 5 2 2 6 12 14 17 10 10 11 14 13 15 14 13 13 13 10 11 9 10 12 16 12 12 10 11 11 11 15 15 22 23 20 20 18 18 17 16 15 15 14 13
5 9 5 2 4 9 15 16 13 10 8 11 13 15 13 14 13 13 13 11 9 10 9 11 13 14 12 13 13 14 13 14 14 16 19 21 19 16 15 16 15 15 14 13 13
8 12 4 3 13 12 14 13 9 10 7 9 10 11 12 12 13 13 13 11 8 8 12 10 13 16 14 12 12 12 12 12 16 18 18 17 19 16 16 15 14 14 13 13 12
9 9 5 6 15 16 14 12 10 10 10 10 11 10 11 12 14 12 13 10 9 9 11 10 14 18 17 14 13 14 14 13 14 15 17 18 18 15 15 15 14 14 13 12 13
11 14 11 9 12 15 16 14 15 8 9 10 10 9 11 12 11 13 12 10 9 9 7 8 13 14 17 14 13 14 14 13 13 15 15 15 16 15 14 14 13 13 13 13 13
12 16 15 16 15 15 15 14 14 14 9 8 12 11 12 14 13 13 12 12 10 9 9 10 14 15 13 13 12 12 13 13 14 12 15 14 15 13 13 13 13 13 13 12 12
15 15 16 16 12 13 14 16 12 11 11 12 13 13 11 13 12 13 12 12 12 10 11 10 17 16 15 14 14 14 12 12 12 12 13 14 14 11 12 12 12 12 12 11 11
10 11 12 12 14 14 15 13 11 10 10 9 9 10 11 10 9 9 9 9 10 11 12 12 15 16 17 15 14 17 14 13 12 12 11 14 12 11 12 12 11 12 11 11 10